STARLINK-1661, 46355

Orbit data source: Space-Track

STARLINK-1661, 46355 is a payload satellite owned by SpaceX/Seattle (US) in LEO that was launched on Thu, 03 Sep 2020 UTC via an FALCON 9 launch vehicle from the Air Force Eastern Test Range (AFETR). Payload-class satellites include a variety of spacecraft equipped with specific instruments for various scientific and technological missions. These include communications satellites like Starlink; space stations such as the ISS; scientific satellites like the Hubble; Earth observation satellites from companies like Planet Labs, Umbra, and HawkEye 360; GPS; miniature CubeSats for education and research; and military/defense satellites.

Loading next visibility...
Identifier
46355, 2020-062AG
Orbit
LEO
Country
Flag of USUS
Related business
Manufacturer
SpaceX/Seattle
Mission
Operational Commercial Communications
Bus & Motor
STARLINK, Unknown motor
Mass
260 kg wet, ~248 kg dry
Launch date (UTC)
2020-09-03 (5 years ago)
Launch vehicle
FALCON 9
Launch site
Air Force Eastern Test Range (AFETR)
Object type
Payload
Rocket body
Debris
Shape & HBR
Box + 1 Pan, 10.1 m
Radar Cross Section
13.562 m², Large (>1 m²)

Expand to show TLE details & history
Last TLE update: 12 hours ago

TLE from 12 hours ago
0 STARLINK-1661
1 46355U 20062AG  25341.28463213  .00005744  00000-0  40414-3 0  9993
2 46355  53.0545  71.4389 0001415  88.3359 271.7793 15.06402101290384
Epoch: 2025-12-07T06:49Z
TLE epoch observation values (Epoch: 2025-12-07T06:49:52.216Z)
Latitude
0.00008°
Longitude
-107.32883°
Altitude
548.054 km
Speed
7.589 km/s
True Right ascension
04h 45m 45s
True Declination
0° 00' 00"
Sunlit
Object was in full shadow at epoch
Visualization orbit readout
Latitude
Unknown
Longitude
Unknown
Altitude
Unknown
Speed
Unknown
Apparent Right ascension
Unknown
Apparent Declination
Unknown
Sunlit
N/A
Visualization observer readout
Local Sidereal Time
17:13:56
Azimuth
Unknown
Elevation
Unknown
Doppler factor
Unknown
Orbital elements
Apogee altitude
548.456 km
Perigee altitude
546.496 km
Semi-major axis
6,925.613 km
Eccentricity
0.00014
Inclination
53.0545°
RAAN
71.4389°
Arg. of periapsis
88.3359°
True anomaly
271.76309°
Mean anomaly
271.7793°
Eccentric anomaly
271.7712°
Mean motion
3.76579 °/min
Orbital period
95.6 mins
BSTAR
0.00040414
Loading maneuver chart data...
Computing Atmospheric mass density...

Documentation

Showing up to 5 results
|